Home   Weather   Braunschweig   Past weeks

Flag for Germany Past Weather in Braunschweig, Lower Saxony, Germany — Yesterday and Last 2 Weeks

Now
64 °F

Scattered clouds.


Feels Like: 64 °F
Forecast: 53 / 66 °F
Wind: 16 mph from Southwest

Location: Braunschweig Wolfsburg

Current Time: Aug 19, 2017 at 2:58:18 pm

Latest Report: Aug 19, 2017 at 12:20 pm


Visibility: N/A

Pressure: 29.98 "Hg

Humidity: 64%

Dew Point: 52 °F

Location of BraunschweigLocation

Past Weather in Braunschweig — Graph

°F

Braunschweig Temperature Yesterday

Maximum temperature yesterday: 68 °F (at 9:20 am)
Minimum temperature yesterday: 63 °F (at 12:50 pm)
Average temperature yesterday: 65 °F

High & Low Weather Summary for the Past Weeks

 TemperatureHumidityPressure
High82 °F (Aug 15, 2:20 pm)100% (Aug 5, 12:20 pm)30.24 "Hg (Aug 5, 12:20 pm)
Low50 °F (Aug 7, 6:50 am)39% (Aug 7, 3:20 pm)29.77 "Hg (Aug 8, 6:20 pm)
Average68 °F77%30.01 "Hg
* Reported Aug 4 12:50 pm — Aug 19 12:20 pm, Braunschweig. Weather by CustomWeather, © 2017

Note: Actual official high and low records may vary slightly from our data, if they occured in-between our weather recording intervals... More about our weather records

Advertising

Braunschweig Weather History for the Previous 24 Hours

Scroll right to see more
 ConditionsComfort  
Time TempWeatherWind HumidityBarometerVisibility
12:20 pm
Sat, Aug 19
64 °FScattered clouds.16 mph64%29.98 "HgN/A
11:50 am64 °FScattered clouds.17 mph60%29.98 "HgN/A
11:20 am63 °FScattered clouds.18 mph73%29.98 "HgN/A
8:50 am59 °FPassing clouds.13 mph100%29.95 "HgN/A
7:50 am57 °FSunny.12 mph100%29.95 "Hg10 mi
9:50 pm
Fri, Aug 18
63 °FClear.3 mph100%29.86 "Hg10 mi
9:20 pm63 °FMostly cloudy.5 mph100%29.86 "HgN/A
8:50 pm63 °FPassing clouds.5 mph100%29.86 "HgN/A
8:20 pm64 °FLight rain. Low clouds.7 mph100%29.83 "HgN/A
7:50 pm64 °FLight rain. Low clouds.5 mph100%29.83 "HgN/A
7:20 pm66 °FLight rain. Clear.3 mph100%29.83 "HgN/A
6:50 pm66 °FSunny.3 mph100%29.83 "Hg10 mi
6:20 pm66 °FPartly sunny.2 mph100%29.83 "HgN/A
5:50 pm66 °FLow clouds.3 mph100%29.86 "HgN/A
5:20 pm66 °FPartly sunny.3 mph100%29.86 "HgN/A
4:50 pm66 °FBroken clouds.3 mph100%29.86 "HgN/A
4:20 pm66 °FMostly cloudy.3 mph100%29.89 "HgN/A
3:20 pm64 °FBroken clouds.3 mph100%29.89 "HgN/A
2:50 pm66 °FPartly sunny.6 mph100%29.89 "HgN/A
2:20 pm64 °FPartly sunny.No wind100%29.89 "HgN/A
Weather by CustomWeather, © 2017

See weather overviewHow to use our weather pages